[[{"header":{"parameterUnit":"m.s-1","parameterCategory":2,"la1":30.2991,"la2":30.254,"lo1":-89.0895,"lo2":-89.0444,"dy":0.0017,"dx":0.0017,"nx":28,"ny":28,"refTime":"2025-01-23T09:00:00:Z","depth":"0","parameterNumber":2,"parameterNumberName":"U-component_of_CURRENTS"},"data":[0,0,0,0,0,0,0,0,0,0,0,0,0,0,0,0,0,0,0,0,0,0,0,0,0,0,0,0,0,0,0,0,0,0,0,0,0,0,0,0,0,0,0,0,0,0,0,0,0,0,0,0,0,0,0,0,0,0,0.1806,0.1805,0,0.1732,0.1731,0.1731,0.1705,0.1705,0.1705,0.1705,0.1752,0.1753,0.1754,0,0,0,0,0,0,0,0,0,0,0,0,0,0.2143,0.2136,0.1806,0.1805,0.1804,0.1732,0.1731,0.1731,0.1705,0.1705,0.1705,0.1705,0.1752,0.1753,0.1755,0,0,0,0,0,0,0,0,0,0,0,0,0,0.2026,0.2133,0.1806,0.1781,0.1778,0.1732,0.1731,0.173,0.1705,0.1705,0.1705,0.1705,0.1751,0.1753,0.1755,0.1761,0,0,0.176,0.1761,0,0,0,0,0,0,0,0,0.2033,0.2014,0.1786,0.1783,0.1779,0.1726,0.1867,0.1746,0.1704,0.1734,0.1705,0.1705,0.1754,0.1755,0.1741,0.1763,0.1765,0.176,0.1761,0.1762,0.1762,0,0,0,0,0,0,0,0.2041,0.2018,0.1778,0.1785,0.1781,0.1849,0.183,0.1845,0.1747,0.1731,0.1729,0.1718,0.1753,0.174,0.1743,0.1766,0.176,0.1761,0.1763,0.1763,0.1812,0.1812,0,0,0,0,0,0,0.2033,0.2024,0.178,0.1776,0.1908,0.1841,0.1821,0.1744,0.1744,0.1743,0.1718,0.1717,0.1737,0.1741,0.1744,0.1773,0.1762,0.1763,0.1764,0.1811,0.1812,0.1812,0,0,0,0,0,0,0.204,0.2009,0.1783,0.1903,0.1878,0.1833,0.1749,0.1743,0.1728,0.1732,0.1734,0.171,0.1737,0.1742,0.1756,0.1774,0.1764,0.1766,0.1811,0.1812,0.1812,0.1817,0,0,0,0,0,0,0.2048,0.2011,0.1973,0.1899,0.1871,0.1748,0.1748,0.1741,0.1721,0.1719,0.1726,0.173,0.1737,0.1753,0.1758,0.1776,0.1767,0.1811,0.1811,0.1812,0.1817,0.1818,0.1818,0,0,0,0,0,0.206,0.2,0.1969,0.1942,0.181,0.1747,0.1739,0.1714,0.172,0.1704,0.1718,0.173,0.176,0.1755,0.176,0.1779,0.1811,0.1811,0.1812,0.1816,0.1817,0.1818,0,0,0,0,0,0,0.2158,0.1989,0.1955,0.1853,0.1802,0.1742,0.1735,0.1715,0.1709,0.1725,0.173,0.1734,0.1753,0.1763,0.1757,0.1794,0.1789,0.1791,0.1791,0.1792,0.1793,0.1793,0.1768,0,0,0,0,0,0.2151,0.2046,0.1936,0.1872,0.1836,0.1789,0.1769,0.1746,0.1725,0.1721,0.1719,0.1737,0.1758,0.1772,0.1782,0.1804,0.1828,0.182,0.1821,0.1822,0.1825,0.1868,0.1874,0.1814,0.1814,0.1814,0,0,0.2184,0.2078,0.2028,0.1886,0.1849,0.1808,0.1777,0.1743,0.173,0.1733,0.1727,0.1736,0.1762,0.1781,0.1792,0.1794,0.1854,0.1823,0.1823,0.1826,0.1869,0.1875,0.1881,0.1814,0.1814,0.1814,0,0,0.2221,0.2091,0.2032,0.1971,0.1892,0.1842,0.1829,0.1756,0.1739,0.1732,0.1738,0.1753,0.1772,0.1787,0.1805,0.182,0.1852,0.1828,0.1841,0.1883,0.1889,0.1894,0.1943,0.1952,0.1835,0.1835,0.1835,0,0.2289,0.2165,0.2028,0.1975,0.1946,0.1855,0.184,0.1795,0.1746,0.1754,0.1737,0.1776,0.1779,0.1829,0.1819,0.1824,0.1855,0.1836,0.1886,0.1891,0.1896,0.1945,0.1956,0.1835,0.1835,0.1835,0.1835,0,0.227,0.22,0.2172,0.2045,0.1996,0.1966,0.1873,0.1839,0.1813,0.1789,0.1812,0.1805,0.184,0.1834,0.1828,0.187,0.1884,0.1878,0.1884,0.1903,0.1953,0.1964,0.1836,0.1836,0.1835,0.1835,0,0,0.2374,0.2193,0.2195,0.2175,0.2031,0.2006,0.1954,0.1904,0.1918,0.1864,0.1905,0.1891,0.1888,0.1906,0.1901,0.1911,0.1958,0.1904,0.1906,0.1955,0.2064,0.205,0.2061,0.1964,0.1966,0.1967,0.2089,0,0.243,0.2371,0.2246,0.2237,0.2209,0.2095,0.2066,0.2015,0.1973,0.1977,0.1958,0.1991,0.1917,0.1955,0.1946,0.1971,0.1985,0.1926,0.2036,0.204,0.2027,0.2072,0.1917,0.201,0.2099,0.2101,0.2102,0,0.2464,0.2417,0.2402,0.2341,0.2321,0.2294,0.2252,0.2213,0.2163,0.2144,0.2137,0.2118,0.213,0.2064,0.2097,0.2068,0.2059,0.2055,0.206,0.2052,0.2045,0.2003,0.2026,0.1869,0.2119,0.2118,0.2117,0,0.262,0.2545,0.2544,0.2511,0.2404,0.2402,0.2358,0.2289,0.2289,0.2258,0.2286,0.2268,0.2307,0.2275,0.2237,0.2185,0.2283,0.2224,0.2201,0.2201,0.2092,0.208,0.1975,0.2241,0.2241,0.2241,0.224,0,0.2701,0.271,0.2624,0.2619,0.2655,0.2541,0.2573,0.2514,0.2481,0.2502,0.24,0.2439,0.2359,0.2385,0.2316,0.2314,0.2359,0.2218,0.2234,0.209,0.2077,0.1954,0.1943,0.2245,0.2244,0.2243,0.2243,0,0.2822,0.276,0.2776,0.2721,0.2713,0.2741,0.2697,0.2717,0.2661,0.2689,0.2694,0.2629,0.264,0.2575,0.2561,0.2452,0.2347,0.2415,0.2254,0.2247,0.2032,0.203,0.2009,0.195,0.2399,0.2399,0.2399,0,0.2848,0.2869,0.2877,0.2907,0.2872,0.2888,0.289,0.282,0.282,0.2799,0.2831,0.2848,0.2832,0.2811,0.2637,0.2552,0.2416,0.2337,0.2181,0.2014,0.2024,0.1975,0.1922,0.2047,0.2045,0.2043,0.2041,0,0.2923,0.2943,0.2957,0.3032,0.3058,0.3066,0.3059,0.3083,0.2993,0.2999,0.2987,0.2986,0.2921,0.2744,0.2627,0.251,0.2192,0.2292,0.215,0.1774,0.1685,0.1637,0.199,0.2022,0.2024,0.2026,0.2027,0.2027,0.2998,0.3043,0.3095,0.3161,0.3188,0.3198,0.3192,0.3157,0.3146,0.3065,0.3107,0.3016,0.2792,0.2587,0.2454,0.2024,0.2124,0.181,0.1839,0.1815,0.1693,0.202,0.2049,0.2051,0.2053,0.2054,0.2056,0,0.3104,0.3143,0.3214,0.3272,0.3306,0.3291,0.3262,0.3191,0.3131,0.3064,0.3029,0.2764,0.2516,0.2219,0.1745,0.1544,0.1432,0.1433,0.1269,0.1252,0.1538,0.1447,0.1308,0.1308,0.1308,0.1309,0.1309,0.1309,0.3158,0.3251,0.3282,0.3363,0.3381,0.3346,0.331,0.3166,0.3055,0.278,0.2575,0.2507,0.2129,0.1662,0.1199,0.1111,0.097,0.0953,0.0999,0.1103,0.1137,0.1168,0.107,0.0855,0.0854,0.0566,0.0564,0.0562]},{"header":{"parameterUnit":"m.s-1","parameterCategory":2,"la1":30.2991,"la2":30.254,"lo1":-89.0895,"lo2":-89.0444,"dy":0.0017,"dx":0.0017,"nx":28,"ny":28,"refTime":"2025-01-23T09:00:00:Z","depth":"0","parameterNumber":3,"parameterNumberName":"V-component_of_CURRENTS"},"data":[0,0,0,0,0,0,0,0,0,0,0,0,0,0,0,0,0,0,0,0,0,0,0,0,0,0,0,0,0,0,0,0,0,0,0,0,0,0,0,0,0,0,0,0,0,0,0,0,0,0,0,0,0,0,0,0,0,0,-0.0597,-0.0595,0,-0.0465,-0.0464,-0.0463,-0.0427,-0.0428,-0.0429,-0.0429,-0.049,-0.0491,-0.0492,0,0,0,0,0,0,0,0,0,0,0,0,0,-0.0898,-0.0892,-0.0597,-0.0595,-0.0593,-0.0466,-0.0464,-0.0462,-0.0427,-0.0428,-0.0429,-0.043,-0.049,-0.0491,-0.0492,0,0,0,0,0,0,0,0,0,0,0,0,0,-0.0768,-0.0891,-0.0597,-0.056,-0.0555,-0.0466,-0.0464,-0.0462,-0.0427,-0.0428,-0.0429,-0.043,-0.0489,-0.0491,-0.0492,-0.0481,0,0,-0.0497,-0.0497,0,0,0,0,0,0,0,0,-0.0775,-0.0757,-0.0567,-0.0562,-0.0556,-0.0463,-0.0592,-0.0477,-0.0427,-0.0477,-0.0429,-0.043,-0.0497,-0.0498,-0.047,-0.0484,-0.0487,-0.0497,-0.0498,-0.0498,-0.0499,0,0,0,0,0,0,0,-0.0784,-0.0763,-0.0546,-0.0565,-0.0558,-0.0577,-0.0559,-0.057,-0.0488,-0.0472,-0.0469,-0.0452,-0.0496,-0.0468,-0.0472,-0.0488,-0.0497,-0.0498,-0.0499,-0.05,-0.0509,-0.0508,0,0,0,0,0,0,-0.0791,-0.077,-0.055,-0.0542,-0.0669,-0.057,-0.055,-0.0493,-0.0483,-0.048,-0.0452,-0.0451,-0.0465,-0.047,-0.0474,-0.0467,-0.0498,-0.05,-0.0501,-0.0509,-0.0508,-0.0508,0,0,0,0,0,0,-0.0798,-0.0771,-0.0555,-0.0656,-0.0629,-0.0563,-0.05,-0.049,-0.0457,-0.0465,-0.0467,-0.0429,-0.0466,-0.0472,-0.0477,-0.0469,-0.0501,-0.0502,-0.051,-0.0509,-0.0508,-0.045,0,0,0,0,0,0,-0.0806,-0.0773,-0.0746,-0.0654,-0.0624,-0.0486,-0.0498,-0.0486,-0.0445,-0.0443,-0.0447,-0.0453,-0.0468,-0.0475,-0.0479,-0.0472,-0.0503,-0.0511,-0.051,-0.0508,-0.0453,-0.0447,-0.0442,0,0,0,0,0,-0.0817,-0.0781,-0.0744,-0.0718,-0.0582,-0.0484,-0.0469,-0.043,-0.0443,-0.0409,-0.0426,-0.0452,-0.047,-0.0475,-0.048,-0.0474,-0.0511,-0.051,-0.0508,-0.0455,-0.0448,-0.0442,0,0,0,0,0,0,-0.0946,-0.077,-0.0729,-0.0653,-0.0564,-0.0477,-0.0455,-0.0425,-0.0404,-0.0423,-0.044,-0.0445,-0.0447,-0.0467,-0.0472,-0.0473,-0.0497,-0.0497,-0.0455,-0.0449,-0.0443,-0.0412,-0.0504,0,0,0,0,0,-0.0945,-0.0847,-0.0712,-0.0663,-0.0608,-0.0529,-0.0492,-0.0454,-0.042,-0.0409,-0.0411,-0.043,-0.0442,-0.0451,-0.0459,-0.0459,-0.0461,-0.046,-0.0455,-0.045,-0.0428,-0.0428,-0.0421,-0.0503,-0.0503,-0.0503,0,0,-0.0992,-0.0883,-0.0836,-0.0679,-0.0613,-0.0514,-0.0509,-0.0442,-0.0384,-0.0426,-0.0381,-0.0409,-0.0437,-0.0431,-0.0435,-0.045,-0.0426,-0.0448,-0.0444,-0.0424,-0.0426,-0.0418,-0.041,-0.0502,-0.0502,-0.0502,0,0,-0.1003,-0.0922,-0.0818,-0.0725,-0.0595,-0.0534,-0.0508,-0.0402,-0.0376,-0.0328,-0.0357,-0.0374,-0.0375,-0.039,-0.0403,-0.0375,-0.0397,-0.0388,-0.0339,-0.034,-0.0333,-0.0327,-0.031,-0.0303,-0.0389,-0.0389,-0.0388,0,-0.1084,-0.0894,-0.0793,-0.067,-0.0597,-0.0534,-0.0429,-0.0386,-0.0309,-0.0289,-0.0311,-0.0315,-0.035,-0.0347,-0.0341,-0.0363,-0.0358,-0.0361,-0.0332,-0.0326,-0.032,-0.0305,-0.0298,-0.0386,-0.0386,-0.0386,-0.0386,0,-0.0966,-0.0837,-0.0784,-0.0579,-0.0509,-0.0415,-0.0321,-0.0273,-0.0253,-0.0212,-0.0198,-0.0239,-0.0242,-0.0266,-0.0295,-0.028,-0.0286,-0.0323,-0.0345,-0.0308,-0.0295,-0.0288,-0.0381,-0.0382,-0.0383,-0.0384,0,0,-0.11,-0.0755,-0.0739,-0.0607,-0.0441,-0.0364,-0.0289,-0.0175,-0.0125,-0.0107,-0.0055,-0.0098,-0.0129,-0.0145,-0.0198,-0.0207,-0.018,-0.0243,-0.0245,-0.022,-0.016,-0.0164,-0.0157,-0.0211,-0.0209,-0.0208,-0.0163,0,-0.1036,-0.0746,-0.0625,-0.0433,-0.0274,-0.0211,-0.014,-0.0067,-0.003,0.0024,-0.0027,-0.0014,-0.0081,-0.0101,-0.0115,-0.0167,-0.016,-0.0187,-0.0204,-0.0203,-0.0207,-0.0149,-0.0091,-0.0045,-0.0156,-0.0155,-0.0155,0,-0.0939,-0.0742,-0.0487,-0.0264,-0.0207,-0.0127,-0.0001,0.0066,0.0122,0.0138,0.0133,0.0102,0.0077,0.001,-0.003,-0.0042,-0.0081,-0.0121,-0.0121,-0.0136,-0.0195,-0.0102,-0.003,-0.0078,-0.0145,-0.0146,-0.0146,0,-0.0962,-0.0673,-0.0448,-0.0361,-0.0111,-0.0052,0.002,0.01,0.0146,0.0199,0.0222,0.0201,0.0175,0.0129,0.004,0.0012,0.0007,-0.005,-0.0078,-0.0079,-0.0036,-0.0035,-0.0004,-0.0048,-0.0048,-0.0048,-0.0048,0,-0.0885,-0.0724,-0.0432,-0.0303,-0.0142,-0.002,0.0087,0.0151,0.0214,0.0259,0.0264,0.0284,0.0203,0.0179,0.01,0.0042,0.0054,-0.0038,-0.0059,-0.0014,-0.0012,-0.0061,-0.011,-0.0047,-0.0047,-0.0047,-0.0048,0,-0.0882,-0.0673,-0.0431,-0.0172,-0.0113,-0.0011,0.0116,0.0171,0.0243,0.0298,0.0307,0.0346,0.0335,0.0269,0.02,0.0117,0.0035,0.0034,0.0102,0.0088,0.0002,-0.0046,-0.0056,-0.0083,0.0023,0.0024,0.0024,0,-0.0808,-0.0654,-0.0371,-0.0286,-0.0162,-0.0016,0.005,0.0162,0.0203,0.0325,0.0333,0.0383,0.0424,0.0365,0.0259,0.0179,0.008,0.0134,0.0082,0.0037,-0.0033,-0.0093,-0.012,0.0168,0.0169,0.0171,0.0171,0,-0.072,-0.063,-0.046,-0.0279,-0.0173,-0.0044,0.0057,0.0107,0.0214,0.0302,0.0398,0.0469,0.0475,0.0472,0.038,0.0284,0.0109,0.0152,0.0095,0.0089,0.004,-0.001,0.01,0.0182,0.0181,0.018,0.0179,0.0179,-0.0727,-0.0627,-0.0451,-0.0301,-0.0189,-0.0093,-0.0008,0.0103,0.0219,0.0415,0.0443,0.0662,0.0647,0.057,0.0428,0.0236,0.0184,0.017,0.012,0.0066,0.003,0.0168,0.0218,0.0217,0.0216,0.0215,0.0215,0,-0.074,-0.0637,-0.0499,-0.0327,-0.0241,-0.0159,-0.0025,0.0091,0.0252,0.052,0.068,0.0877,0.0811,0.0688,0.0425,0.0254,0.0152,0.0148,0.0095,0.0069,0.0205,0.02,0.0263,0.0263,0.0263,0.0263,0.0263,0.0263,-0.0744,-0.0641,-0.0557,-0.0418,-0.0316,-0.0184,-0.01,0.012,0.036,0.0774,0.105,0.1233,0.1116,0.0602,0.0271,0.0189,0.0055,0.0037,-0.0064,0.0049,0.0047,0.0045,0.0031,0.0058,0.0057,-0.0158,-0.016,-0.0162]}],[{"header":{"parameterUnit":"m.s-1","parameterCategory":2,"la1":30.2991,"la2":30.254,"lo1":-89.0895,"lo2":-89.0444,"dy":0.0017,"dx":0.0017,"nx":28,"ny":28,"refTime":"2025-01-23T09:00:00:Z","depth":"2","parameterNumber":2,"parameterNumberName":"U-component_of_CURRENTS"},"data":[0,0,0,0,0,0,0,0,0,0,0,0,0,0,0,0,0,0,0,0,0,0,0,0,0,0,0,0,0,0,0,0,0,0,0,0,0,0,0,0,0,0,0,0,0,0,0,0,0,0,0,0,0,0,0,0,0,0,0.1129,0.113,0,0.1189,0.1189,0.1189,0.1178,0.1178,0.1177,0.1177,0.1253,0.1256,0.1258,0,0,0,0,0,0,0,0,0,0,0,0,0,0.1084,0.1084,0.1129,0.113,0.1132,0.1189,0.1189,0.1189,0.1178,0.1178,0.1177,0.1177,0.1252,0.1255,0.1258,0,0,0,0,0,0,0,0,0,0,0,0,0,0.1113,0.1084,0.1129,0.1138,0.114,0.1188,0.1189,0.1189,0.1178,0.1178,0.1177,0.1176,0.1251,0.1255,0.1259,0.1296,0,0,0.127,0.1272,0,0,0,0,0,0,0,0,0.1111,0.1114,0.1135,0.1137,0.114,0.1181,0.1201,0.1228,0.1179,0.1157,0.1177,0.1176,0.1235,0.124,0.1244,0.1299,0.1302,0.127,0.1272,0.1274,0.1275,0,0,0,0,0,0,0,0.1109,0.1112,0.1146,0.1137,0.114,0.1166,0.1168,0.1206,0.1195,0.1159,0.116,0.1177,0.1235,0.124,0.1246,0.1304,0.127,0.1273,0.1276,0.1277,0.1408,0.1409,0,0,0,0,0,0,0.1111,0.111,0.1144,0.1149,0.1131,0.1168,0.117,0.1163,0.1194,0.12,0.1177,0.1176,0.1234,0.1241,0.1248,0.1299,0.1274,0.1278,0.128,0.1407,0.1408,0.141,0,0,0,0,0,0,0.111,0.1113,0.1142,0.1137,0.1143,0.1169,0.1162,0.1165,0.1181,0.1209,0.1213,0.1193,0.1234,0.1243,0.1284,0.1302,0.1279,0.1283,0.1405,0.1407,0.1409,0.1399,0,0,0,0,0,0,0.1108,0.1111,0.1126,0.1136,0.1144,0.1163,0.1164,0.1167,0.1195,0.1194,0.1224,0.123,0.1234,0.1278,0.1288,0.1307,0.1285,0.1404,0.1406,0.1408,0.1397,0.14,0.1402,0,0,0,0,0,0.1105,0.1117,0.1126,0.1132,0.1156,0.1164,0.1169,0.1182,0.1197,0.1196,0.1223,0.1229,0.13,0.1282,0.1293,0.1313,0.1403,0.1405,0.1408,0.1396,0.1399,0.1402,0,0,0,0,0,0,0.1111,0.1118,0.1127,0.1143,0.1154,0.1164,0.1181,0.1195,0.1217,0.1227,0.1246,0.1253,0.1292,0.1313,0.1293,0.136,0.1353,0.1358,0.1341,0.1344,0.1346,0.1351,0.1289,0,0,0,0,0,0.1121,0.1124,0.1136,0.1151,0.1156,0.1175,0.1191,0.1198,0.1217,0.1225,0.1242,0.1277,0.1313,0.1335,0.1358,0.1404,0.1424,0.1426,0.1428,0.143,0.1443,0.1474,0.148,0.1419,0.1419,0.1419,0,0,0.114,0.1137,0.1149,0.1153,0.1163,0.1181,0.1179,0.12,0.122,0.1235,0.1263,0.1283,0.1326,0.136,0.1382,0.1381,0.146,0.1434,0.1435,0.1447,0.1478,0.1484,0.1489,0.1421,0.142,0.142,0,0,0.1178,0.1161,0.1189,0.1198,0.1218,0.1199,0.1209,0.122,0.1225,0.1265,0.1277,0.1307,0.1363,0.1381,0.1407,0.1447,0.1466,0.1461,0.1484,0.1513,0.1518,0.1523,0.1557,0.1564,0.1468,0.1468,0.1468,0,0.1217,0.1233,0.1201,0.1235,0.1244,0.1209,0.1241,0.124,0.1264,0.1286,0.1274,0.136,0.1375,0.144,0.1439,0.1451,0.1475,0.1464,0.1515,0.152,0.1524,0.1558,0.1567,0.1468,0.1468,0.1468,0.1468,0,0.1287,0.1306,0.1315,0.1324,0.1314,0.1331,0.1312,0.1315,0.1311,0.1324,0.1376,0.1389,0.1443,0.1448,0.1457,0.1507,0.1515,0.1505,0.1501,0.153,0.1564,0.1573,0.1467,0.1468,0.1468,0.1468,0,0,0.1384,0.137,0.1385,0.1405,0.1364,0.1372,0.1366,0.1369,0.1407,0.1408,0.1459,0.1492,0.1493,0.1522,0.1528,0.1548,0.1584,0.1542,0.1543,0.1565,0.1661,0.1584,0.1586,0.1581,0.1583,0.1584,0.167,0,0.1465,0.1514,0.1478,0.1524,0.1536,0.1488,0.1496,0.1494,0.147,0.1498,0.1508,0.1557,0.1523,0.1558,0.1563,0.1595,0.1608,0.1562,0.164,0.1643,0.1561,0.1594,0.1432,0.1488,0.1679,0.1681,0.1682,0,0.1581,0.1573,0.1616,0.1621,0.163,0.1645,0.1631,0.165,0.1647,0.1645,0.1655,0.1646,0.1685,0.1636,0.1693,0.167,0.1662,0.1667,0.1671,0.1611,0.1583,0.1492,0.1497,0.1697,0.1696,0.1695,0.1694,0,0.166,0.1697,0.1711,0.172,0.1702,0.1729,0.1727,0.1711,0.1724,0.1739,0.1757,0.177,0.1819,0.1799,0.1782,0.1754,0.183,0.1795,0.1718,0.1713,0.1597,0.1578,0.1816,0.1815,0.1815,0.1815,0.1815,0,0.1751,0.1795,0.1768,0.1789,0.1829,0.182,0.1865,0.1864,0.1865,0.1878,0.1855,0.1858,0.1864,0.1878,0.1827,0.1809,0.1871,0.1734,0.1731,0.1588,0.1569,0.1766,0.1759,0.1818,0.1818,0.1817,0.1816,0,0.1835,0.1828,0.1856,0.1852,0.1863,0.1899,0.1917,0.1934,0.1974,0.1978,0.1991,0.1982,0.2003,0.1984,0.1986,0.1904,0.187,0.1837,0.1669,0.1643,0.1722,0.1714,0.1773,0.1771,0.177,0.1768,0.1767,0,0.1877,0.1892,0.1885,0.1874,0.1872,0.1919,0.1921,0.1959,0.193,0.2019,0.1988,0.2064,0.2002,0.1999,0.1897,0.1825,0.186,0.1634,0.1528,0.1727,0.1719,0.1713,0.1707,0.1383,0.1379,0.1375,0.1373,0,0.1896,0.1893,0.1868,0.1859,0.1859,0.1875,0.1879,0.1871,0.1911,0.1936,0.1954,0.1954,0.1951,0.1783,0.1709,0.1626,0.1628,0.1559,0.1835,0.1404,0.1361,0.1352,0.1359,0.1342,0.1345,0.1347,0.1349,0.135,0.1877,0.1853,0.181,0.1817,0.1814,0.18,0.1772,0.178,0.1778,0.1761,0.1807,0.174,0.1697,0.1467,0.1383,0.1334,0.1443,0.1337,0.1347,0.1361,0.1285,0.124,0.1185,0.1187,0.1189,0.1191,0.1192,0,0.1813,0.1795,0.1769,0.1738,0.1703,0.1774,0.1703,0.1646,0.1617,0.1595,0.1591,0.1307,0.1174,0.1158,0.1026,0.0987,0.0969,0.0938,0.0908,0.0939,0.0967,0.087,0.0662,0.066,0.0658,0.0657,0,0,0.176,0.1701,0.1697,0.163,0.1646,0.1595,0.155,0.1432,0.135,0.1255,0.1155,0.1151,0.1118,0.0873,0.0828,0.0743,0.0841,0.07,0.1126,0.1127,0.1153,0.1197,0.1083,0,0,0,0,0]},{"header":{"parameterUnit":"m.s-1","parameterCategory":2,"la1":30.2991,"la2":30.254,"lo1":-89.0895,"lo2":-89.0444,"dy":0.0017,"dx":0.0017,"nx":28,"ny":28,"refTime":"2025-01-23T09:00:00:Z","depth":"2","parameterNumber":3,"parameterNumberName":"V-component_of_CURRENTS"},"data":[0,0,0,0,0,0,0,0,0,0,0,0,0,0,0,0,0,0,0,0,0,0,0,0,0,0,0,0,0,0,0,0,0,0,0,0,0,0,0,0,0,0,0,0,0,0,0,0,0,0,0,0,0,0,0,0,0,0,0.0635,0.0633,0,0.0504,0.0503,0.0502,0.0475,0.0475,0.0476,0.0476,0.041,0.0408,0.0405,0,0,0,0,0,0,0,0,0,0,0,0,0,0.0604,0.0607,0.0635,0.0633,0.0631,0.0504,0.0503,0.0501,0.0475,0.0475,0.0476,0.0477,0.0411,0.0408,0.0405,0,0,0,0,0,0,0,0,0,0,0,0,0,0.0565,0.0608,0.0636,0.0599,0.0594,0.0504,0.0503,0.0501,0.0475,0.0475,0.0476,0.0477,0.0412,0.0408,0.0405,0.0366,0,0,0.0394,0.0393,0,0,0,0,0,0,0,0,0.0568,0.0567,0.0607,0.0601,0.0596,0.0503,0.0467,0.0458,0.0474,0.0525,0.0476,0.0477,0.0443,0.0437,0.0416,0.0363,0.036,0.0394,0.0392,0.039,0.0389,0,0,0,0,0,0,0,0.0571,0.0571,0.0588,0.0604,0.0598,0.05,0.0499,0.0464,0.0486,0.052,0.0517,0.0495,0.0442,0.042,0.0415,0.0359,0.0394,0.0391,0.0389,0.0387,0.03,0.03,0,0,0,0,0,0,0.0591,0.0575,0.0592,0.0584,0.0578,0.0501,0.0499,0.0535,0.0484,0.0476,0.0494,0.0494,0.0425,0.0419,0.0412,0.0409,0.039,0.0387,0.0385,0.0301,0.03,0.03,0,0,0,0,0,0,0.0592,0.0596,0.0597,0.0568,0.0561,0.0502,0.0542,0.0532,0.05,0.0463,0.0457,0.047,0.0426,0.0417,0.0403,0.0405,0.0386,0.0382,0.0301,0.03,0.03,0.0373,0,0,0,0,0,0,0.0593,0.0599,0.0618,0.0573,0.0564,0.056,0.054,0.0529,0.0483,0.0482,0.044,0.0435,0.0426,0.0408,0.0399,0.0399,0.038,0.0301,0.0301,0.03,0.0371,0.0375,0.0379,0,0,0,0,0,0.0593,0.0624,0.0622,0.0621,0.06,0.056,0.0548,0.0507,0.0481,0.0479,0.0459,0.0436,0.0398,0.0406,0.0395,0.0394,0.0301,0.0301,0.03,0.0369,0.0374,0.0379,0,0,0,0,0,0,0.0608,0.0622,0.0619,0.0651,0.0613,0.0554,0.0545,0.0497,0.0471,0.0467,0.0437,0.0432,0.0422,0.0389,0.0398,0.0365,0.0343,0.034,0.0399,0.0403,0.0407,0.0413,0.0377,0,0,0,0,0,0.0624,0.0654,0.0636,0.0647,0.0653,0.0592,0.0562,0.0524,0.0492,0.0479,0.0454,0.0425,0.0408,0.0394,0.0377,0.0351,0.033,0.034,0.0344,0.0348,0.0344,0.0336,0.034,0.0298,0.0298,0.0298,0,0,0.0613,0.063,0.0637,0.0649,0.0631,0.0621,0.058,0.054,0.0512,0.0476,0.0458,0.044,0.0406,0.04,0.0389,0.0374,0.0347,0.0347,0.0351,0.0345,0.0336,0.034,0.0344,0.0298,0.0298,0.0298,0,0,0.0617,0.0656,0.0688,0.067,0.0642,0.0618,0.0607,0.0559,0.0541,0.0503,0.0485,0.0473,0.0425,0.0422,0.0406,0.041,0.0375,0.0392,0.041,0.0404,0.0408,0.0411,0.0392,0.0393,0.0387,0.0387,0.0387,0,0.0601,0.066,0.0674,0.0691,0.0678,0.0626,0.0629,0.0594,0.053,0.0525,0.0509,0.0465,0.0438,0.0436,0.0441,0.0421,0.0405,0.0403,0.0412,0.0414,0.0416,0.0396,0.0396,0.0391,0.039,0.039,0.039,0,0.0626,0.066,0.0678,0.0708,0.0693,0.068,0.0652,0.0625,0.059,0.0557,0.0547,0.052,0.0498,0.0482,0.0458,0.0457,0.0438,0.0429,0.0408,0.0426,0.0402,0.0401,0.0396,0.0394,0.0393,0.0393,0,0,0.0619,0.069,0.0686,0.0714,0.0703,0.0692,0.0674,0.0662,0.0647,0.0603,0.0606,0.0571,0.0559,0.054,0.0516,0.0495,0.0494,0.0463,0.0461,0.0459,0.047,0.0464,0.0462,0.0491,0.0491,0.0491,0.045,0,0.0634,0.0692,0.071,0.0726,0.0769,0.0731,0.0721,0.0683,0.0663,0.0655,0.0628,0.0622,0.0581,0.0575,0.0555,0.0515,0.0493,0.0505,0.044,0.0438,0.0442,0.0461,0.0471,0.0436,0.0449,0.0448,0.0448,0,0.0649,0.0702,0.075,0.0785,0.0798,0.0783,0.0778,0.0757,0.0733,0.071,0.0703,0.0688,0.0667,0.0627,0.057,0.058,0.0526,0.0485,0.0483,0.0449,0.0429,0.0417,0.0433,0.0446,0.0446,0.0446,0.0446,0,0.0661,0.0715,0.0769,0.0773,0.0805,0.0806,0.0805,0.078,0.0783,0.076,0.0758,0.0736,0.0732,0.0668,0.059,0.0579,0.0522,0.0501,0.0444,0.0442,0.0422,0.0418,0.0455,0.0455,0.0455,0.0455,0.0455,0,0.0688,0.0716,0.078,0.0806,0.0849,0.0844,0.0876,0.0841,0.0834,0.0857,0.0805,0.0828,0.0741,0.0708,0.0618,0.0536,0.0548,0.0448,0.0435,0.0446,0.0446,0.0427,0.0425,0.0454,0.0454,0.0454,0.0455,0,0.0699,0.0734,0.0802,0.0856,0.0868,0.0897,0.0932,0.0957,0.091,0.0937,0.0935,0.0904,0.086,0.0762,0.0668,0.0581,0.0491,0.0454,0.0467,0.0457,0.0403,0.0405,0.0385,0.0384,0.0384,0.0384,0.0383,0,0.0727,0.0772,0.0845,0.0892,0.0926,0.0977,0.1017,0.0996,0.1037,0.1,0.1037,0.0991,0.1007,0.086,0.0694,0.0539,0.051,0.0428,0.0406,0.0409,0.0398,0.04,0.0402,0.0402,0.0402,0.0402,0.0402,0,0.0799,0.0811,0.0865,0.0964,0.1026,0.1108,0.1169,0.121,0.1192,0.1196,0.1231,0.1233,0.108,0.0953,0.0715,0.0605,0.0453,0.0422,0.0433,0.0423,0.0424,0.0414,0.0415,0.0402,0.0402,0.0402,0.0402,0.0402,0.0849,0.0887,0.0955,0.1048,0.1122,0.1239,0.1336,0.1368,0.143,0.1445,0.1444,0.1392,0.1181,0.0892,0.069,0.0448,0.0475,0.0379,0.038,0.0381,0.0395,0.0395,0.0369,0.0369,0.0369,0.0369,0.0369,0,0.0935,0.096,0.1048,0.1174,0.1304,0.1291,0.144,0.1515,0.1598,0.1564,0.1596,0.136,0.1188,0.091,0.0563,0.0381,0.0356,0.0306,0.0317,0.032,0.0323,0.0333,0.0291,0.029,0.0289,0.0288,0,0,0.0985,0.1072,0.1114,0.1334,0.1405,0.1584,0.1681,0.1724,0.173,0.1664,0.1576,0.156,0.1208,0.093,0.0686,0.0484,0.0441,0.044,0.0529,0.0578,0.0582,0.0398,0.0423,0,0,0,0,0]}],[{"header":{"parameterUnit":"m.s-1","parameterCategory":2,"la1":30.2991,"la2":30.254,"lo1":-89.0895,"lo2":-89.0444,"dy":0.0017,"dx":0.0017,"nx":28,"ny":28,"refTime":"2025-01-23T09:00:00:Z","depth":"4","parameterNumber":2,"parameterNumberName":"U-component_of_CURRENTS"},"data":[0,0,0,0,0,0,0,0,0,0,0,0,0,0,0,0,0,0,0,0,0,0,0,0,0,0,0,0,0,0,0,0,0,0,0,0,0,0,0,0,0,0,0,0,0,0,0,0,0,0,0,0,0,0,0,0,0,0,0.0269,0.027,0,0.04,0.0401,0.0403,0.0453,0.0453,0.0453,0.0452,0.0537,0.0539,0.0542,0,0,0,0,0,0,0,0,0,0,0,0,0,0.0075,0.0078,0.0269,0.027,0.0272,0.0399,0.0401,0.0403,0.0453,0.0453,0.0452,0.0452,0.0536,0.0539,0.0542,0,0,0,0,0,0,0,0,0,0,0,0,0,0.0178,0.0079,0.0268,0.0312,0.0318,0.0399,0.0401,0.0403,0.0453,0.0453,0.0452,0.0452,0.0535,0.0539,0.0543,0.0578,0,0,0.0555,0.0556,0,0,0,0,0,0,0,0,0.0172,0.0185,0.0304,0.031,0.0316,0.0409,0.0364,0.0459,0.0454,0.0402,0.0452,0.0452,0.049,0.0498,0.0525,0.0582,0.0586,0.0555,0.0557,0.0559,0.056,0,0,0,0,0,0,0,0.0165,0.018,0.0321,0.0306,0.0313,0.033,0.0344,0.0383,0.0447,0.0406,0.041,0.0425,0.0493,0.0521,0.0527,0.0587,0.0555,0.0558,0.0561,0.0562,0.0708,0.0709,0,0,0,0,0,0,0.0149,0.0173,0.0317,0.0325,0.0241,0.0334,0.0349,0.038,0.0448,0.0458,0.0425,0.0427,0.0514,0.0522,0.053,0.0599,0.0559,0.0563,0.0565,0.0707,0.0708,0.071,0,0,0,0,0,0,0.0145,0.0161,0.0311,0.025,0.0271,0.0338,0.0372,0.0383,0.0425,0.0463,0.0472,0.0457,0.0514,0.0524,0.0575,0.0601,0.0564,0.0568,0.0705,0.0707,0.0709,0.0722,0,0,0,0,0,0,0.0139,0.0159,0.0177,0.025,0.0274,0.0364,0.0373,0.0386,0.0434,0.0438,0.0493,0.05,0.0515,0.0569,0.0579,0.0606,0.0571,0.0703,0.0706,0.0708,0.0719,0.0724,0.0728,0,0,0,0,0,0.0132,0.0154,0.0178,0.0195,0.0296,0.0365,0.0379,0.0424,0.0436,0.0459,0.0495,0.0499,0.0594,0.0574,0.0585,0.0613,0.0701,0.0705,0.0708,0.0717,0.0723,0.0728,0,0,0,0,0,0,0.0067,0.0164,0.0191,0.0239,0.03,0.0374,0.0395,0.0435,0.0485,0.0487,0.052,0.053,0.0585,0.0601,0.0577,0.0665,0.0648,0.0654,0.0651,0.0657,0.0662,0.0656,0.0574,0,0,0,0,0,0.0065,0.0112,0.0198,0.0232,0.0264,0.0335,0.0369,0.0408,0.0461,0.0485,0.0526,0.0567,0.0609,0.0632,0.067,0.0719,0.0729,0.0746,0.075,0.0753,0.0758,0.0803,0.0811,0.0721,0.0721,0.0721,0,0,0.0046,0.0104,0.0129,0.0222,0.027,0.0333,0.0354,0.0412,0.0466,0.0485,0.0558,0.0587,0.0626,0.068,0.0706,0.0695,0.0783,0.0758,0.076,0.0763,0.0807,0.0816,0.0823,0.0724,0.0723,0.0723,0,0,0.0032,0.0087,0.0126,0.0186,0.027,0.0327,0.0348,0.0439,0.0477,0.0554,0.0576,0.0618,0.0695,0.072,0.0744,0.0798,0.0806,0.0816,0.0833,0.0877,0.0884,0.0891,0.0901,0.0909,0.0816,0.0816,0.0816,0,0.0003,0.0075,0.0142,0.0199,0.0247,0.0327,0.0381,0.0443,0.0538,0.0573,0.0577,0.0688,0.0714,0.0775,0.0791,0.0807,0.0825,0.0806,0.0881,0.0888,0.0895,0.0904,0.0912,0.0817,0.0817,0.0817,0.0817,0,0.0028,0.0091,0.0114,0.0223,0.0281,0.0338,0.0435,0.0499,0.0557,0.0617,0.0694,0.073,0.0791,0.0808,0.0818,0.0881,0.0876,0.0881,0.0862,0.0904,0.0911,0.0919,0.0818,0.0818,0.0818,0.0817,0,0,-0.0036,0.0105,0.0115,0.0172,0.0301,0.0354,0.0445,0.055,0.0611,0.069,0.0752,0.0821,0.0838,0.0865,0.0881,0.0914,0.0965,0.0919,0.0921,0.0918,0.1047,0.0944,0.0943,0.099,0.0992,0.0993,0.1028,0,-0.0033,0.006,0.0136,0.0234,0.0301,0.04,0.0476,0.0577,0.0662,0.0743,0.0789,0.0856,0.0863,0.0886,0.0924,0.0955,0.0991,0.0954,0.1017,0.1018,0.0913,0.0951,0.0999,0.1034,0.1036,0.1037,0.1038,0,-0.002,0.0048,0.0129,0.0261,0.0294,0.0362,0.0497,0.0574,0.0703,0.0763,0.0839,0.0886,0.0944,0.0942,0.1021,0.1001,0.1032,0.1051,0.1053,0.0959,0.093,0.0989,0.1053,0.1051,0.105,0.1049,0.1048,0,-0.0079,0.0049,0.0109,0.0157,0.0311,0.0361,0.0441,0.0577,0.0641,0.0776,0.0822,0.0916,0.0946,0.1012,0.1054,0.1052,0.1127,0.1127,0.1065,0.1057,0.1132,0.1125,0.1199,0.1199,0.1199,0.1199,0.1199,0,-0.0083,-0.0029,0.0088,0.0131,0.0209,0.032,0.0412,0.0513,0.0627,0.0697,0.0812,0.0862,0.0971,0.1026,0.1069,0.1076,0.1144,0.1071,0.1066,0.1135,0.1128,0.1137,0.1129,0.12,0.12,0.1199,0.1199,0,-0.0131,-0.0061,0.002,0.015,0.0193,0.0247,0.0388,0.045,0.0565,0.0654,0.0691,0.0827,0.0903,0.0987,0.1084,0.1069,0.1105,0.1099,0.1149,0.1146,0.1001,0.0994,0.1028,0.1025,0.1022,0.102,0.1018,0,-0.0142,-0.0106,0.001,0.0043,0.0108,0.0203,0.0267,0.041,0.0472,0.0622,0.064,0.0754,0.0841,0.0886,0.0983,0.1052,0.1055,0.1055,0.1045,0.0995,0.0988,0.0985,0.0982,0.1013,0.1013,0.1012,0.1011,0,-0.0162,-0.0134,-0.0074,-0.0006,0.0058,0.0134,0.023,0.0265,0.0416,0.0511,0.0597,0.0671,0.0747,0.0836,0.0894,0.0945,0.1041,0.1026,0.1033,0.1024,0.0978,0.0973,0.0973,0.1002,0.1003,0.1004,0.1005,0,-0.019,-0.0169,-0.011,-0.0044,0.0012,0.0054,0.0121,0.0208,0.0288,0.0453,0.0476,0.0613,0.0726,0.078,0.0833,0.087,0.087,0.0849,0.0864,0.0876,0.0813,0.0732,0.0679,0,0,0,0,0,-0.0199,-0.0182,-0.0146,-0.0079,-0.0038,-0.0001,0.0094,0.0159,0.0294,0.0331,0.0411,0.0494,0.0596,0.0665,0.068,0.076,0.086,0.0771,0.0838,0.095,0.0961,0.0903,0,0,0,0,0,0,-0.021,-0.0182,-0.0158,-0.0128,-0.0104,-0.0052,-0.0001,0.0084,0.0123,0.0258,0.0323,0.0429,0.054,0.0577,0.0657,0.0679,0.0704,0.0857,0.0855,0.0944,0.0953,0.0962,0.0907,0,0,0,0,0]},{"header":{"parameterUnit":"m.s-1","parameterCategory":2,"la1":30.2991,"la2":30.254,"lo1":-89.0895,"lo2":-89.0444,"dy":0.0017,"dx":0.0017,"nx":28,"ny":28,"refTime":"2025-01-23T09:00:00:Z","depth":"4","parameterNumber":3,"parameterNumberName":"V-component_of_CURRENTS"},"data":[0,0,0,0,0,0,0,0,0,0,0,0,0,0,0,0,0,0,0,0,0,0,0,0,0,0,0,0,0,0,0,0,0,0,0,0,0,0,0,0,0,0,0,0,0,0,0,0,0,0,0,0,0,0,0,0,0,0,0.0622,0.0622,0,0.0598,0.0597,0.0597,0.0566,0.0566,0.0566,0.0565,0.0534,0.0534,0.0533,0,0,0,0,0,0,0,0,0,0,0,0,0,0.06,0.0601,0.0622,0.0622,0.0622,0.0598,0.0597,0.0597,0.0566,0.0566,0.0566,0.0565,0.0534,0.0534,0.0533,0,0,0,0,0,0,0,0,0,0,0,0,0,0.0595,0.0601,0.0622,0.0605,0.0604,0.0598,0.0597,0.0597,0.0566,0.0566,0.0565,0.0565,0.0534,0.0534,0.0533,0.0538,0,0,0.0531,0.053,0,0,0,0,0,0,0,0,0.0595,0.0595,0.0608,0.0606,0.0605,0.0586,0.0578,0.0577,0.0567,0.0579,0.0565,0.0565,0.0552,0.055,0.0544,0.0536,0.0535,0.053,0.053,0.053,0.0529,0,0,0,0,0,0,0,0.0596,0.0596,0.0611,0.0608,0.0606,0.0584,0.0583,0.0577,0.0567,0.0578,0.0576,0.0576,0.0551,0.0545,0.0543,0.0535,0.053,0.053,0.0529,0.0529,0.0533,0.0534,0,0,0,0,0,0,0.0605,0.0597,0.0612,0.061,0.06,0.0585,0.0584,0.0591,0.0567,0.0564,0.0576,0.0575,0.0547,0.0544,0.0542,0.0559,0.053,0.0529,0.0528,0.0532,0.0533,0.0534,0,0,0,0,0,0,0.0605,0.0607,0.0613,0.0604,0.0603,0.0587,0.0595,0.0591,0.0588,0.0567,0.0562,0.0577,0.0546,0.0543,0.0543,0.0557,0.0529,0.0528,0.0532,0.0533,0.0533,0.0586,0,0,0,0,0,0,0.0604,0.0607,0.0618,0.0605,0.0604,0.0615,0.0595,0.0591,0.0589,0.0586,0.0566,0.0563,0.0546,0.0544,0.0542,0.0556,0.0527,0.0531,0.0532,0.0533,0.0583,0.0588,0.0593,0,0,0,0,0,0.0604,0.062,0.0619,0.0621,0.0619,0.0615,0.0613,0.0598,0.059,0.0592,0.0579,0.0563,0.0549,0.0544,0.0541,0.0555,0.053,0.0532,0.0533,0.0581,0.0587,0.0593,0,0,0,0,0,0,0.0617,0.0618,0.0617,0.0633,0.0628,0.0611,0.0616,0.0604,0.0596,0.0596,0.0572,0.0568,0.0574,0.0557,0.0552,0.0559,0.0537,0.0538,0.0575,0.058,0.0585,0.0581,0.0527,0,0,0,0,0,0.0627,0.0635,0.0633,0.0643,0.0649,0.0635,0.0633,0.0623,0.0613,0.0608,0.0592,0.058,0.0577,0.0573,0.0565,0.057,0.0544,0.0576,0.0581,0.0585,0.058,0.0557,0.0558,0.0538,0.0538,0.0538,0,0,0.0632,0.0634,0.0638,0.0646,0.0644,0.065,0.0632,0.0635,0.0633,0.0608,0.0604,0.0598,0.0582,0.0588,0.0589,0.0576,0.0578,0.0587,0.059,0.0583,0.0558,0.056,0.0562,0.0539,0.0539,0.0539,0,0,0.0643,0.0656,0.0667,0.067,0.0674,0.0666,0.067,0.0661,0.0654,0.0654,0.0637,0.0639,0.0627,0.062,0.0615,0.064,0.0606,0.064,0.0659,0.0637,0.0638,0.0639,0.0613,0.061,0.064,0.064,0.064,0,0.065,0.0663,0.0668,0.0682,0.0683,0.0676,0.0684,0.0681,0.0667,0.0664,0.066,0.0649,0.0642,0.0645,0.0656,0.0652,0.0628,0.0641,0.0643,0.0643,0.0643,0.0615,0.0612,0.0643,0.0643,0.0642,0.0642,0,0.0663,0.068,0.069,0.0701,0.0706,0.0712,0.0713,0.0711,0.0705,0.0698,0.0702,0.0694,0.0684,0.069,0.0682,0.0683,0.0664,0.0654,0.0629,0.0648,0.0618,0.0614,0.0647,0.0646,0.0645,0.0644,0,0,0.0656,0.0691,0.0692,0.0702,0.0716,0.0717,0.0726,0.0725,0.0724,0.0725,0.0721,0.0731,0.0726,0.072,0.0714,0.0702,0.0692,0.0681,0.0678,0.0654,0.0636,0.0599,0.059,0.068,0.0679,0.0679,0.0617,0,0.0659,0.0683,0.0698,0.0714,0.0729,0.0732,0.0737,0.0738,0.0737,0.0734,0.0738,0.074,0.0739,0.0741,0.073,0.0704,0.0682,0.0709,0.062,0.0617,0.0582,0.0585,0.0678,0.0614,0.0613,0.0612,0.0611,0,0.0664,0.0676,0.0698,0.072,0.0727,0.0739,0.074,0.0746,0.075,0.0749,0.0755,0.0753,0.0753,0.0743,0.0702,0.0718,0.0678,0.0653,0.065,0.059,0.0572,0.0588,0.0603,0.0604,0.0605,0.0605,0.0606,0,0.0644,0.0675,0.0689,0.0698,0.0723,0.0734,0.0746,0.0754,0.0767,0.0766,0.077,0.0762,0.0766,0.0721,0.0684,0.0687,0.0624,0.0619,0.0543,0.054,0.0569,0.0568,0.057,0.057,0.057,0.057,0.057,0,0.0634,0.0647,0.0687,0.0693,0.0718,0.0735,0.076,0.0765,0.0782,0.0808,0.0786,0.0794,0.076,0.0727,0.0678,0.0601,0.0617,0.0539,0.0519,0.0593,0.0596,0.0566,0.0566,0.0568,0.0568,0.0569,0.0569,0,0.0612,0.0637,0.0664,0.0696,0.0718,0.0736,0.0795,0.0814,0.0813,0.0844,0.0849,0.0825,0.0782,0.0728,0.0658,0.0596,0.0523,0.0486,0.0567,0.0554,0.0452,0.0456,0.0389,0.0388,0.0386,0.0385,0.0383,0,0.0596,0.0611,0.0672,0.0703,0.0728,0.0769,0.0813,0.0839,0.0865,0.0868,0.0884,0.0846,0.0824,0.0692,0.0626,0.0507,0.0488,0.0429,0.0441,0.0445,0.0432,0.0439,0.0445,0.0381,0.0381,0.038,0.038,0,0.0565,0.06,0.0627,0.0707,0.0765,0.0831,0.089,0.0903,0.0934,0.0927,0.091,0.084,0.078,0.069,0.0592,0.051,0.0458,0.0412,0.0415,0.0425,0.0434,0.0425,0.0432,0.0374,0.0375,0.0376,0.0376,0,0.0547,0.0582,0.0645,0.0719,0.0803,0.0891,0.0905,0.0941,0.0966,0.0953,0.0951,0.0875,0.0841,0.069,0.0606,0.0514,0.0486,0.0436,0.0437,0.0442,0.0474,0.0495,0.043,0,0,0,0,0,0.0537,0.0606,0.0659,0.0765,0.0849,0.0922,0.0971,0.0974,0.0989,0.0981,0.0964,0.0907,0.0764,0.0701,0.0604,0.0575,0.0471,0.0453,0.0416,0.0344,0.035,0.0375,0,0,0,0,0,0,0.0543,0.0605,0.0662,0.0801,0.089,0.1006,0.1049,0.1047,0.1026,0.1006,0.0936,0.0879,0.075,0.0851,0.0615,0.0583,0.0537,0.0388,0.0385,0.034,0.0346,0.0351,0.0379,0,0,0,0,0]}]]